Location: F?ge?el
(45.8833°N, 22.5833°E)
Time: 07:57:56
(UTC+00:00)

Cosmos 1932 - Pass Details

Date: 17 November 2025
Orbit: 921 x 1008 km, 65.0° (Epoch: 13 December)

Event Time Altitude Azimuth Distance (km) Brightness Sun altitude
Rises 17:44:55 0° 219° (SW) 3,630 8.0 -29.2°
Reaches altitude 10° 17:47:27 10° 220° (SW) 2,700 7.2 -29.6°
Maximum altitude 17:53:47 78° 307° (NW) 1,009 4.5 -30.7°
Enters shadow 17:54:04 76° 335° (NNW) 1,016 4.5 -30.8°
